Limon, CO

2:23 AM MDT on September 22, 2017 (GMT -0600)
Limon Municipal

Weather History for KLIC - March, 2014

Change the Weather History Date:

Thursday, March 6, 2014

  Actual Average Record
Temperature  
Mean Temperature 44 °F -  
Max Temperature 68 °F - 71 °F (2006)
Min Temperature 20 °F - 5 °F (2015)
Degree Days  
Heating Degree Days 21    
Month to date heating degree days 215  
Cooling Degree Days 0    
Month to date cooling degree days 0  
Moisture  
Dew Point 19 °F    
Average Humidity 51    
Maximum Humidity 91    
Minimum Humidity 11    
Precipitation  
Precipitation 0.00 in - 0.00 in (2017)
Month to date precipitation 0.02  
Year to date precipitation 1.19  
Sea Level Pressure  
Sea Level Pressure 29.85 in    
Wind  
Wind Speed 6 mph (SW)    
Max Wind Speed 20 mph    
Max Gust Speed 23 mph    
Visibility 10 miles    
Events      
T = Trace of Precipitation, MM = Missing Value Source: NWS Daily Summary

Daily Weather History Graph

Daily Weather History Graph

Search for Another Location

Airport or City:

Trip Planner

Search our weather history database for the weather conditions in past years. The results will help you decide how hot, cold, wet, or windy it might be!

Date:

Astronomy

Mar. 06, 2014 Rise Set
Actual Time 6:19 AM MST 5:52 PM MST
Civil Twilight 5:53 AM MST 6:19 PM MST
Nautical Twilight 5:22 AM MST 6:50 PM MST
Astronomical Twilight 4:51 AM MST 7:21 PM MST
Moon 9:31 AM MST (3/6) 11:58 PM MST (3/6)
Length of Visible Light 12h 26m
Length of Day
11h 32m
Waxing Crescent, 33% of the Moon is Illuminated
Mar 6
Waxing Crescent
Mar 8
First Quarter
Mar 16
Full
Mar 23
Last Quarter
Mar 30
New

Hourly Weather History & Observations

Time (MST) Temp. Windchill Dew Point Humidity Pressure Visibility Wind Dir Wind Speed Gust Speed Precip Events Conditions
12:55 AM 34.0 °F 27.2 °F 23.0 °F 64% 30.04 in 10.0 mi South 8.1 mph - N/A   Clear
1:55 AM 32.0 °F 28.7 °F 21.9 °F 66% 30.02 in 10.0 mi Variable 3.5 mph - N/A   Clear
2:55 AM 35.1 °F 26.9 °F 21.9 °F 59% 29.97 in 10.0 mi SW 11.5 mph 23.0 mph N/A   Clear
3:55 AM 36.0 °F 33.3 °F 21.9 °F 57% 29.96 in 10.0 mi North 3.5 mph - N/A   Clear
4:55 AM 21.0 °F - 18.0 °F 88% 29.99 in 10.0 mi Calm Calm - N/A   Clear
5:55 AM 19.9 °F 10.1 °F 18.0 °F 92% 30.03 in 10.0 mi North 8.1 mph - N/A   Clear
6:55 AM 26.1 °F 18.4 °F 21.9 °F 84% 30.03 in 10.0 mi North 6.9 mph - N/A   Clear
7:55 AM 39.0 °F 34.8 °F 25.0 °F 57% 30.00 in 10.0 mi NW 5.8 mph - N/A   Clear
8:55 AM 52.0 °F - 24.1 °F 34% 29.96 in 10.0 mi Calm Calm - N/A   Clear
9:55 AM 55.9 °F - 23.0 °F 28% 29.93 in 10.0 mi SSE 9.2 mph - N/A   Clear
10:55 AM 61.0 °F - 19.9 °F 21% 29.88 in 10.0 mi SSE 5.8 mph - N/A   Clear
11:55 AM 64.9 °F - 16.0 °F 15% 29.83 in 10.0 mi ENE 4.6 mph - N/A   Clear
12:55 PM 64.9 °F - 12.9 °F 13% 29.77 in 10.0 mi South 11.5 mph - N/A   Clear
1:55 PM 64.0 °F - 12.0 °F 13% 29.74 in 10.0 mi South 11.5 mph - N/A   Clear
2:55 PM 64.9 °F - 10.0 °F 12% 29.71 in 10.0 mi Calm Calm - N/A   Clear
3:55 PM 66.0 °F - 10.9 °F 12% 29.70 in 10.0 mi South 12.7 mph - N/A   Clear
4:55 PM 59.0 °F - 14.0 °F 17% 29.78 in 10.0 mi South 8.1 mph - N/A   Clear
5:55 PM 50.0 °F - 16.0 °F 26% 29.81 in 10.0 mi SSE 4.6 mph - N/A   Clear
6:55 PM 45.0 °F 43.5 °F 18.0 °F 34% 29.80 in 10.0 mi SSE 3.5 mph - N/A   Clear
7:55 PM 37.9 °F 35.5 °F 21.9 °F 53% 29.78 in 10.0 mi North 3.5 mph - N/A   Clear
8:55 PM 35.1 °F 32.2 °F 23.0 °F 61% 29.72 in 10.0 mi North 3.5 mph - N/A   Clear
9:55 PM 32.0 °F 24.8 °F 23.0 °F 69% 29.71 in 10.0 mi North 8.1 mph - N/A   Clear
10:55 PM 33.1 °F 28.7 °F 24.1 °F 70% 29.68 in 10.0 mi NNW 4.6 mph - N/A   Clear
11:55 PM 42.1 °F 36.6 °F 23.0 °F 47% 29.64 in 10.0 mi WNW 9.2 mph - N/A   Clear